Location: ????? ???????
(25.7275°N, 32.5929°E)
Time: 11:42:03
(UTC+00:00)

Cosmos 2263 Rocket - Pass Details

Date: 02 March 2021
Orbit: 825 x 847 km, 71.0° (Epoch: 15 April)

Event Time Altitude Azimuth Distance (km) Brightness Sun altitude
Rises 16:28:05 0° 345° (NNW) 3,360 5.5 -8.9°
Reaches altitude 10° 16:30:32 10° 348° (NNW) 2,425 4.7 -9.5°
Maximum altitude 16:36:03 68° 71° (ENE) 888 2.1 -10.7°
Drops below altitude 10° 16:41:35 10° 154° (SSE) 2,424 4.4 -12.0°
Sets 16:44:01 0° 156° (SSE) 3,358 5.1 -12.5°
